Weather History for Mexicali, Mexico

Change the Weather History Date:

Thursday, November 29, 2012

  Actual Average Record
Temperature  
Mean Temperature 66 °F -  
Max Temperature 80 °F 67 °F 80 °F (2012)
Min Temperature 51 °F 41 °F 39 °F (2005)
Growing Degree Days 16 (Base 50)    
Moisture  
Dew Point 52 °F    
Average Humidity 66    
Maximum Humidity 100    
Minimum Humidity 34    
Precipitation  
Precipitation 0.00 in - - ()
Sea Level Pressure  
Sea Level Pressure 30.11 in    
Wind  
Wind Speed 1 mph ()    
Max Wind Speed 6 mph    
Max Gust Speed -    
Visibility 8.2 miles    
Events Fog    
Averages and records for this station are not official NWS values.
T = Trace of Precipitation, MM = Missing Value Source: Averaged Metar Reports

Daily Weather History Graph

Daily Weather History Graph

Search for Another Location

Airport:

Trip Planner

Search our weather history database for the weather conditions in past years. The results will help you decide how hot, cold, wet, or windy it might be!

Date:

Astronomy

Nov. 29, 2012 Rise Set
Actual Time 6:23 AM PST 4:35 PM PST
Civil Twilight 5:57 AM PST 5:01 PM PST
Nautical Twilight 5:26 AM PST 5:32 PM PST
Astronomical Twilight 4:56 AM PST 6:01 PM PST
Moon 5:41 PM PST (11/29) 7:13 AM PST (11/29)
Length of Visible Light 11h 04m
Length of Day
10h 11m
Full, 99% of the Moon is Illuminated
Nov 29
Full
Dec 6
Last Quarter
Dec 13
New
Dec 19
First Quarter
Dec 28
Full

Hourly Weather History & Observations

Time (PST) Temp. Dew Point Humidity Pressure Visibility Wind Dir Wind Speed Gust Speed Precip Events Conditions
12:17 AM 57.2 °F 55.4 °F 94% 30.10 in 0.1 mi Calm Calm - N/A Fog Fog
12:44 AM 57.2 °F 57.2 °F 100% 30.10 in 0.0 mi Calm Calm - N/A Fog Fog
4:40 AM 53.6 °F 53.6 °F 100% 30.10 in 4.0 mi South 4.6 mph - N/A   Clear
5:40 AM 51.8 °F 51.8 °F 100% 30.12 in 4.0 mi South 3.5 mph - N/A   Scattered Clouds
6:20 AM 51.8 °F 51.8 °F 100% 30.13 in 2.0 mi East 5.8 mph - N/A   Scattered Clouds
6:48 AM 53.6 °F 53.6 °F 100% 30.21 in 6.0 mi Calm Calm - N/A   Scattered Clouds
7:49 AM 57.2 °F 55.4 °F 94% 30.14 in 10.0 mi Calm Calm - N/A   Scattered Clouds
8:40 AM 60.8 °F 57.2 °F 88% 30.16 in 10.0 mi Calm Calm - N/A   Clear
9:23 AM 68.0 °F 55.4 °F 64% 30.16 in 10.0 mi Calm Calm - N/A   Clear
9:52 AM 69.8 °F 53.6 °F 56% 30.17 in 10.0 mi Calm Calm - N/A   Clear
10:46 AM 71.6 °F 50.0 °F 46% 30.15 in 10.0 mi Calm Calm - N/A   Partly Cloudy
11:46 AM 75.2 °F 48.2 °F 38% 30.12 in 10.0 mi Calm Calm - N/A   Partly Cloudy
12:47 PM 77.0 °F 50.0 °F 39% 30.11 in 10.0 mi Calm Calm - N/A   Clear
1:43 PM 78.8 °F 50.0 °F 36% 30.07 in 10.0 mi Calm Calm - N/A   Clear
2:45 PM 80.6 °F 50.0 °F 34% 30.05 in 10.0 mi Calm Calm - N/A   Clear
3:45 PM 78.8 °F 50.0 °F 36% 30.05 in 10.0 mi Calm Calm - N/A   Scattered Clouds
4:49 PM 75.2 °F 51.8 °F 44% 30.05 in 10.0 mi Calm Calm - N/A   Scattered Clouds
5:45 PM 71.6 °F 51.8 °F 50% 30.06 in 10.0 mi Calm Calm - N/A   Scattered Clouds
6:54 PM 69.8 °F 51.8 °F 53% 30.07 in 10.0 mi South 5.8 mph - N/A   Clear
7:48 PM 68.0 °F 51.8 °F 56% 30.09 in 10.0 mi Calm Calm - N/A   Clear
8:54 PM 66.2 °F 50.0 °F 56% 30.09 in 10.0 mi Calm Calm - N/A   Clear
9:44 PM 66.2 °F 50.0 °F 56% 30.10 in 10.0 mi Calm Calm - N/A   Clear
10:41 PM 64.4 °F 51.8 °F 64% 30.10 in 10.0 mi Calm Calm - N/A   Clear
11:53 PM 59.0 °F 50.0 °F 72% 30.09 in 10.0 mi Calm Calm - N/A   Clear